Regional Weather Roundup
Issued by NWS

Home | Current Version | Previous Version | Graphics & Text | Print | Product List | Glossary On
Versions: 1 2 3 4 5 6 7 8 9 10 11 12 13 14 15 16 17 18 19 20 21 22 23 24 25 26 27 28 29 30 31 32 33 34 35 36 37 38 39 40 41 42 43 44 45 46 47 48 49 50
000
ASUS43 KLSX 132310
RWRMO

WEATHER SUMMARY FOR MISSOURI
NATIONAL WEATHER SERVICE SPRINGFIELD MO
500 PM CST SAT FEB 13 2016

NOTE: "FAIR" INDICATES FEW OR NO CLOUDS BELOW 12,000 FEET WITH NO
       SIGNIFICANT WEATHER AND/OR OBSTRUCTIONS TO VISIBILITY.
       CURRENT SKY AND/OR WEATHER CONDITIONS ARE NOT AVAILABLE FOR
       CHILLICOTHE AND FARMINGTON.

MOZ001>031-035>038-043-044-053-054-140000-
...NORTHERN AND WESTERN MISSOURI...

CITY           SKY/WX    TMP DP  RH WIND       PRES   REMARKS
KANSAS CTY INT CLOUDY    20   4  50 E16       30.35F WCI   6
KANSAS C DTWN  CLOUDY    22   4  46 E13       30.36F WCI  10
LEE`S SUMMIT   CLOUDY    21   3  45 E12       30.36F WCI   9
ST JOSEPH      CLOUDY    20   1  43 SE12      30.37F WCI   8
CHILLICOTHE      N/A     20   1  43 E12       30.44F WCI   8
KIRKSVILLE     CLOUDY    18   2  49 E9        30.45F WCI   7

$$
MOZ066>068-077>081-088>096-101>105-140000-
...SOUTHWEST MISSOURI...

CITY           SKY/WX    TMP DP  RH WIND       PRES   REMARKS
SPRINGFIELD    PTCLDY    37  -3  18 SE15      30.29F WCI  28
JOPLIN         PTCLDY    42   7  23 E9        30.25F

$$
MOZ032>034-039>042-045>050-055>058-069>072-140000-
...CENTRAL MISSOURI...

CITY           SKY/WX    TMP DP  RH WIND       PRES   REMARKS
COLUMBIA       CLOUDY    20   1  43 E9        30.43F WCI   9
JEFFERSON CITY CLOUDY    21   1  41 E12       30.48F WCI   9
ROLLA          CLOUDY    21   1  41 E10       30.41F WCI  10
SEDALIA        CLOUDY    22   0  38 E16       30.41F WCI   8
WHITEMAN AFB   CLOUDY    21   0  39 E10       30.37F WCI  10
WARRENSBURG    CLOUDY    23   1  39 E14       30.38F WCI  11
OSAGE BEACH    CLOUDY    23   0  36 E10G16    30.41F WCI  12

$$
MOZ051-052-059>065-140000-
...EAST CENTRAL MISSOURI...

CITY           SKY/WX    TMP DP  RH WIND       PRES   REMARKS
ST LOUIS INTL  CLOUDY    24  -1  33 E5        30.53F WCI  18
SPIRIT OF STL  CLOUDY    22   0  38 E5        30.52F WCI  16
ST CHARLES     CLOUDY    21   2  43 NE7       30.53F WCI  12

$$
MOZ072>076-082>087-097>100-106>115-140000-
...SOUTH CENTRAL AND SOUTHEAST MISSOURI...

CITY           SKY/WX    TMP DP  RH WIND       PRES   REMARKS
CAPE GIRARDEAU CLOUDY    26   3  37 NE6       30.53S WCI  19
FARMINGTON     CLOUDY    23   2  40 E8        30.48F WCI  14
POPLAR BLUFF   CLOUDY    26   4  38 E9        30.51F WCI  17
WEST PLAINS    CLOUDY    30  -4  23 E13       30.39F WCI  20

$$



USA.gov is the U.S. government's official web portal to all federal, state and local government web resources and services.